This is the latest recevied weather packets stored in our database for station/object VR2R-13. If no packets are shown the sender has not sent any weather packets the latest 1 day(s).
| Time | Temp. | Humidity | Pressure | Rain* | Wind** | Luminosity | Snow |
|---|---|---|---|---|---|---|---|
| 1778019767 | 16.11° C | 97% | 914.1 hPa | 0 mm | 1.34 m/s, 77° | - | - |
| 1778019468 | 16.11° C | 97% | 914.1 hPa | 0 mm | 1.34 m/s, 79° | - | - |
| 1778019467 | 16.11° C | 97% | 914 hPa | 0 mm | 1.34 m/s, 78° | - | - |
| 1778019167 | 16.11° C | 97% | 914 hPa | 0 mm | 0.45 m/s, 80° | - | - |
| 1778019108 | 16.11° C | 97% | 913.9 hPa | 0 mm | 1.34 m/s, 34° | - | - |
| 1778018748 | 16.11° C | 97% | 913.9 hPa | 0 mm | 1.34 m/s, 77° | - | - |
| 1778018567 | 16.11° C | 97% | 913.8 hPa | 0 mm | 1.79 m/s, 66° | - | - |
| 1778018388 | 16.11° C | 97% | 913.8 hPa | 0 mm | 1.34 m/s, 62° | - | - |
| 1778018267 | 16.11° C | 97% | 913.7 hPa | 0 mm | 0 m/s | - | - |
| 1778018028 | 16.67° C | 97% | 913.7 hPa | 0 mm | 1.34 m/s, 116° | - | - |
| 1778017966 | 16.67° C | 97% | 913.7 hPa | 0 mm | 0.89 m/s, 80° | - | - |
| 1778017668 | 16.67° C | 97% | 913.7 hPa | 0 mm | 0.45 m/s, 67° | - | - |
| 1778017666 | 16.67° C | 97% | 913.7 hPa | 0 mm | 0.45 m/s, 64° | - | - |
| 1778017366 | 16.67° C | 97% | 913.7 hPa | 0 mm | 0.89 m/s, 45° | - | - |
| 1778017066 | 16.67° C | 98% | 913.7 hPa | 0 mm | 0.45 m/s, 142° | - | - |
| 1778016948 | 16.67° C | 98% | 913.7 hPa | 0 mm | 0.45 m/s, 90° | - | - |
| 1778016766 | 16.67° C | 98% | 913.7 hPa | 0 mm | 0.45 m/s, 59° | - | - |
| 1778016588 | 16.67° C | 97% | 913.7 hPa | 0 mm | 0.45 m/s, 77° | - | - |
| 1778016466 | 16.67° C | 97% | 913.7 hPa | 0 mm | 0.89 m/s, 75° | - | - |
| 1778016227 | 16.67° C | 97% | 913.7 hPa | 0 mm | 0.89 m/s, 81° | - | - |
| 1778015868 | 16.67° C | 97% | 913.7 hPa | 0 mm | 0.45 m/s, 77° | - | - |
| 1778015566 | 16.67° C | 97% | 913.6 hPa | 0 mm | 0 m/s | - | - |
| 1778015507 | 17.22° C | 97% | 913.6 hPa | 0 mm | 0.45 m/s, 49° | - | - |
| 1778015266 | 17.22° C | 98% | 913.6 hPa | 0 mm | 0.45 m/s, 145° | - | - |
| 1778015147 | 17.22° C | 98% | 913.6 hPa | 0 mm | 0.89 m/s, 120° | - | - |
* Rain latest hour (hover to see other rain measurements)
** Current wind speed in m/s (hover to see current wind gust speed)